Location: Sinnemahoning State Park
(41.4031°N, 78.0230°W)
Time: 10:54:59
(UTC-05:00)

Daily predictions for brighter satellites

Satellite Brightness Start Highest point End
(mag) Time Altitude Azimuth Time Altitude Azimuth Time Altitude Azimuth
CENTAUR R/B 3.2 18:11:16 10° NNW 18:19:10 81° NE 18:27:34 10° SE
Cosmos 2360 4.2 18:14:22 10° NNW 18:20:08 79° ENE 18:25:51 10° SSE
Cosmos 1633 4.4 18:27:24 10° ESE 18:28:55 12° E 18:30:26 10° ENE
NOSS 2-2 (E) 3.6 18:25:28 10° SW 18:29:31 86° NW 18:34:15 10° NE
SKYMED 2 3.8 18:27:10 10° N 18:31:31 78° WNW 18:35:51 10° SSW
Cosmos 44 Rocket 3.2 18:26:46 10° NNW 18:31:34 78° ENE 18:36:14 10° SE
Cosmos 1975 Rocket 3.0 18:27:20 10° N 18:31:41 81° E 18:36:00 10° S
SL-08 R/B 4.5 18:26:43 10° S 18:32:49 83° E 18:39:01 10° N
ASTRO F (AKARI) 4.5 18:31:33 10° NNE 18:35:15 79° ESE 18:38:43 10° S
Cosmos 2322 Rocket 2.4 18:31:09 10° NNW 18:36:38 50° ENE 18:42:04 10° SE
Okean 1 4.1 18:33:27 10° NNE 18:37:06 31° ENE 18:40:44 10° SE
Cosmos 1340 4.1 18:37:29 10° NNE 18:40:15 19° ENE 18:43:00 10° ESE
Nadezhda 1 Rocket 3.9 18:38:18 10° N 18:44:24 75° E 18:50:27 10° SSE
Meteor 1-28 Rocket 3.7 18:40:52 10° N 18:44:38 65° WNW 18:48:24 10° SSW
Tiangong 2 1.0 18:45:55 10° WNW 18:49:00 74° N 18:50:56 20° E
NOSS 2-2 (D) 3.9 18:45:30 10° SW 18:49:30 64° NW 18:54:10 10° NNE
Cosmos 1818 4.1 18:44:38 10° S 18:49:34 37° ESE 18:54:32 10° NE
Cosmos 1346 Rocket 4.0 18:45:55 10° NNW 18:49:43 46° W 18:53:27 10° SSW
Cosmos 1536 Rocket 4.0 18:46:13 10° N 18:50:25 39° ENE 18:54:37 10° SSE
Meteor 1-25 Rocket 4.2 18:45:04 10° S 18:50:38 77° E 18:56:19 10° NNE
Cosmos 2181 Rocket 4.4 18:46:42 10° N 18:52:26 38° ENE 18:58:14 10° SE
Resurs 01 Rocket 2.2 18:48:39 10° SE 18:52:40 35° ENE 18:56:41 10° N
DNEPR-1 R/B 3.6 18:49:59 10° NNW 18:54:11 53° NE 18:58:09 11° SE
Helios 1B rocket 4.2 18:56:57 15° ESE 18:56:57 15° ESE 18:58:11 10° SE
COSMOS 2428 4.3 18:52:15 10° N 18:55:38 16° NE 18:56:56 15° ENE
Meteor 1-11 Rocket 4.4 18:54:24 10° SSE 18:59:26 33° E 19:04:35 10° NNE
Cosmos 44 3.0 18:55:59 10° NNW 19:00:27 87° WSW 19:04:45 10° SSE
H-2A R/B 3.3 18:58:38 10° SE 19:01:56 33° ENE 19:05:19 10° N
DELTA 2 R/B (1) 3.7 18:56:33 10° W 19:02:10 75° S 19:05:58 21° E
FENGYUN 3A 3.7 18:57:30 10° SSE 19:02:48 60° ENE 19:08:08 10° N
deb Kosmos-1763 4.1 19:03:50 10° SSW 19:07:38 90° ESE 19:11:27 10° NNE
Cosmos 1812 3.3 19:07:25 10° NNW 19:11:15 61° W 19:15:02 10° S
Cosmos 676 Rocket 4.0 19:10:17 10° S 19:15:21 60° ESE 19:20:29 10° NNE
Cosmos 407 Rocket 3.4 19:10:30 10° SSW 19:15:43 87° ESE 19:21:04 10° NNE
Cosmos 1709 Rocket 3.9 19:11:07 10° S 19:17:19 72° E 19:23:29 10° NNE
Resurs 1-3 3.6 19:15:59 10° SSE 19:20:17 59° ENE 19:24:37 10° N
Cosmos 1300 Rocket 3.6 19:20:30 10° S 19:24:48 56° E 19:29:09 10° NNE
ATLAS 2A CENTAUR R/B 4.1 19:25:45 10° S 19:27:42 13° SSE 19:29:17 12° SE
Cosmos 2360 Rocket 2.3 19:24:41 10° NNW 19:30:15 53° ENE 19:32:44 31° ESE
Cosmos 1602 3.5 19:30:14 10° S 19:34:05 77° E 19:37:58 10° N
Cosmos 2219 Rocket 3.8 19:30:35 10° N 19:33:20 17° NE 19:33:20 17° NE
SAR-Lupe-4 3.4 19:36:35 68° ENE 19:36:35 68° ENE 19:40:02 10° N
GEOS 3 Rocket 4.4 19:36:24 10° NNE 19:41:28 51° NW 19:46:32 10° WSW
ALOS 3.0 19:37:32 10° S 19:42:05 53° W 19:46:40 10° NNW
TSX-5 4.1 19:42:28 10° SSW 19:44:47 44° SW 19:44:47 44° SW
Cosmos 1140 Rocket 3.3 19:41:27 10° S 19:46:32 69° ESE 19:49:24 26° NNE
Cosmos 1833 4.1 19:41:08 10° SSW 19:46:51 80° ESE 19:51:45 14° NNE
Cosmos 1238 Rocket 3.6 19:44:42 10° NNW 19:46:37 32° NNW 19:46:37 32° NNW
Spot 1 3.7 19:49:08 76° SE 19:49:24 84° ENE 19:53:31 10° NNW
Spot 2 Rocket 3.9 19:44:49 10° S 19:49:48 63° WSW 19:54:51 10° NNW
Okean 1 Rocket 2.9 19:47:10 10° S 19:51:39 85° E 19:56:09 10° N
Cosmos 2333 Rocket 3.9 19:47:32 10° N 19:50:09 18° NNE 19:50:09 18° NNE
Cosmos 1461 3.8 19:51:20 10° NW 19:55:11 45° WSW 19:56:31 32° SSW
Meteor 1-19 Rocket 4.3 19:51:00 10° NNW 19:56:40 78° W 20:02:23 10° S
SL-16 R/B 3.8 19:56:02 10° NW 20:01:05 34° WSW 20:06:07 10° SSW
Helios 1A 3.0 20:02:04 74° WSW 20:02:06 74° WSW 20:06:17 10° NNW
Okean 1-7 Rocket 3.9 19:58:06 10° N 20:01:49 59° N 20:01:49 59° N
Cosmos 1633 4.0 20:00:03 10° SSW 20:03:31 38° WNW 20:07:00 10° N
Cosmos 614 Rocket 4.0 19:58:29 10° SSW 20:02:46 61° SSE 20:02:46 61° SSE
Envisat 3.7 20:07:28 40° NNE 20:07:28 40° NNE 20:10:54 10° N
USA 229 DEB 4.2 20:03:25 10° NNW 20:10:12 44° NE 20:10:23 44° NE
USA 229 4.2 20:03:31 10° NNW 20:10:17 44° NE 20:10:27 43° NE
Cosmos 2322 Rocket 4.4 20:16:01 10° NW 20:20:16 23° W 20:24:31 10° SSW
Tiangong 2 4.4 20:22:31 10° W 20:22:55 13° W 20:22:55 13° W
Meteor 1-23 Rocket 4.3 20:19:52 10° NNW 20:25:42 77° W 20:26:15 70° SW
Resurs 01 Rocket 4.1 20:25:54 10° SW 20:29:14 21° W 20:32:34 10° NW
Cosmos 2322 4.2 20:24:16 10° NNW 20:29:53 58° WSW 20:30:39 53° SW
COSMOS 2428 3.4 20:35:00 10° NNW 20:39:00 47° NNW 20:39:00 47° NNW
BREEZE-M DEB (TANK) 4.2 20:41:33 10° WNW 20:44:45 68° WNW 20:44:45 68° WNW
Cosmos 2237 Rocket 4.2 20:50:31 10° N 20:52:08 19° N 20:52:08 19° N
Cosmos 2360 Rocket 4.2 21:09:37 10° NW 21:13:47 22° W 21:14:35 21° WSW
Cosmos 2219 Rocket 4.2 21:13:15 10° NNW 21:15:05 22° NNW 21:15:05 22° NNW
